Regional Weather Roundup
Issued by NWS State College, PA

Home | Current Version | Previous Version | Graphics & Text | Print | Product List | Glossary Off
Versions: 1 2 3 4 5 6 7 8 9 10 11 12 13 14 15 16 17 18 19 20 21 22 23 24 25 26 27 28 29 30 31 32 33 34 35 36 37 38 39 40 41 42 43 44 45 46 47 48 49 50

000
ASUS41 KCTP 230310
RWRCTP

REGIONAL WEATHER ROUNDUP
NATIONAL WEATHER SERVICE STATE COLLEGE PA
1100 PM EDT SUN OCT 22 2017

Note: "fair" indicates few or no clouds below 12,000 feet with no
significant weather and/or obstructions to visibility.

* = STATION THAT DOES NOT REPORT PRECIPITATION /E.G. RAIN...SNOW...ETC/
    THUNDER OR FOG.

PAZ002>004-007>009-013>016-020>023-029>032-230400-
WESTERN PENNSYLVANIA

CITY           SKY/WX    TMP DP  RH WIND       PRES   REMARKS
ERIE           CLOUDY    68  51  54 S16G24    30.12F
MEADVILLE      PTCLDY    64  52  64 VRB5      30.17F
FRANKLIN*      PTCLDY    63  52  67 SE12      30.20F
NEW CASTLE     FAIR      64  52  64 SE3       30.17F
BEAVER COUNTY  NOT AVBL
BUTLER*        PTCLDY    65  53  65 SE8       30.19S
PITTSBURGH INT CLOUDY    66  52  60 SE8       30.17S
PITTSBURGH     PTCLDY    66  49  54 S8        30.18S
INDIANA*       CLEAR     64  54  68 SE8G20    30.24S
LATROBE        PTCLDY    66  52  59 SE9G16    30.20S
WASHINGTON CO* CLOUDY    63  50  62 S3        30.21R
$$

PAZ004>006-010>012-017>019-024>028-033>037-041-042-045-046-049>053-230400-
CENTRAL PENNSYLVANIA

CITY           SKY/WX    TMP DP  RH WIND       PRES   REMARKS
BRADFORD       PTCLDY    61  52  72 SE7       30.25F
DUBOIS         CLOUDY    60  51  72 SE9       30.23F
CLEARFIELD     CLOUDY    62  53  72 VRB3      30.27F
JOHNSTOWN      CLOUDY    60  53  77 SE8       30.27S
ALTOONA        PTCLDY    64  54  69 S9        30.28F
STATE COLLEGE  CLOUDY    63  51  66 CALM      30.28F
WILLIAMSPORT   PTCLDY    56  47  71 S3        30.29S
SELINSGROVE    PTCLDY    52  50  93 CALM      30.31F
FT INDIANTOWN  CLOUDY    51  47  89 NE3       30.33F
CAPITAL CITY   PTCLDY    59  50  72 SE7       30.32F
HARRISBURG     MOCLDY    56  51  84 E5        30.32F
YORK           PTCLDY    51  48  89 SE7       30.32F
$$

PAZ038>040-043-044-047-048-054-055-060>062-067>071-230400-
EASTERN PENNSYLVANIA

CITY           SKY/WX    TMP DP  RH WIND       PRES   REMARKS
SCRANTON       CLEAR     62  46  55 CALM      30.34S
MOUNT POCONO   CLEAR     55  45  68 S5        30.37F
ALLENTOWN      CLEAR     62  45  53 SE6       30.36S
QUAKERTOWN*    CLEAR     48  46  93 CALM      30.37F
READING        CLEAR     53  50  89 CALM      30.34S
LANCASTER      PTCLDY    54  47  77 E5        30.34F
COATESVILLE    MOCLDY    59  55  88 CALM      30.37S
POTTSTOWN      CLEAR     51  47  86 CALM      30.37F
BLUE BELL      CLEAR     46  46 100 CALM      30.37F
DOYLESTOWN     PTCLDY    57  50  77 VRB3      30.36F
WILLOW GROVE   NOT AVBL
NORTH PHILA    CLOUDY    60  53  77 CALM      30.38F
PHILADELPHIA   PTCLDY    59  55  87 CALM      30.35F
$$




USA.gov is the U.S. government's official web portal to all federal, state and local government web resources and services.